FW0475 Weather Reports


Display with metric or nautical units.
time (UTC)temp
F
wind
direction
speed
MPH
gust
MPH
rain 1hr
in
rain 24hr
in
rain mn
in
humidity
%
barometer
mb
20260510130326 45 264 4.0 7.0 0.00 0.00 0.00 62 1018.6
20260510125818 45 269 4.0 7.0 0.00 0.00 0.00 62 1018.5
20260510125335 45 271 4.0 6.0 0.00 0.00 0.00 62 1018.4
20260510124820 45 260 3.0 7.0 0.00 0.00 0.00 62 1018.3
20260510124317 45 285 3.0 7.0 0.00 0.00 0.00 62 1018.3
20260510123834 45 286 4.0 7.0 0.00 0.00 0.00 62 1018.4
20260510123327 45 267 4.0 6.0 0.00 0.00 0.00 62 1018.4
20260510122844 45 268 4.0 6.0 0.00 0.00 0.00 62 1018.3
20260510122337 45 246 2.0 5.0 0.00 0.00 0.00 62 1018.1
20260510121822 45 253 1.0 4.0 0.00 0.00 0.00 63 1018.0
20260510121319 44 246 1.0 4.0 0.00 0.00 0.00 63 1018.0
20260510120833 44 259 2.0 4.0 0.00 0.00 0.00 63 1018.0
20260510120326 44 250 1.0 4.0 0.00 0.00 0.00 64 1018.0
20260510115843 44 259 1.0 3.0 0.00 0.00 0.00 64 1017.9
20260510115328 43 242 2.0 3.0 0.00 0.00 0.00 65 1017.8
20260510114824 42 236 1.0 2.0 0.00 0.00 0.00 66 1017.7
20260510114321 42 199 0.0 2.0 0.00 0.00 0.00 67 1017.7
20260510113833 41 74 0.0 1.0 0.00 0.00 0.00 67 1017.6
20260510113328 41 57 0.0 1.0 0.00 0.00 0.00 67 1017.4
20260510112823 41 57 0.0 1.0 0.00 0.00 0.00 68 1017.4
20260510112338 41 57 0.0 2.0 0.00 0.00 0.00 68 1017.3
20260510111822 40 58 1.0 2.0 0.00 0.00 0.00 68 1017.2
20260510111336 40 57 1.0 2.0 0.00 0.00 0.00 68 1017.2
20260510110828 40 57 1.0 2.0 0.00 0.00 0.00 68 1017.1
20260510110344 40 57 1.0 2.0 0.00 0.00 0.00 68 1017.1
20260510105839 40 57 1.0 2.0 0.00 0.00 0.00 66 1017.0
20260510105323 40 57 1.0 2.0 0.00 0.00 0.00 66 1016.9
20260510104828 39 57 1.0 2.0 0.00 0.00 0.00 66 1016.7
20260510104326 39 57 1.0 2.0 0.00 0.00 0.00 66 1016.6
20260510103840 40 57 1.0 2.0 0.00 0.00 0.00 66 1016.5
20260510103327 40 57 2.0 2.0 0.00 0.00 0.00 66 1016.5
20260510102836 40 57 2.0 2.0 0.00 0.00 0.00 66 1016.4
20260510102321 40 57 2.0 2.0 0.00 0.00 0.00 67 1016.4
20260510101834 40 57 1.0 2.0 0.00 0.00 0.00 67 1016.4
20260510101320 40 57 1.0 2.0 0.00 0.00 0.00 66 1016.3
20260510100855 40 57 1.0 2.0 0.00 0.00 0.00 66 1016.1
20260510100326 40 57 1.0 2.0 0.00 0.00 0.00 66 1016.1
20260510095834 40 57 1.0 2.0 0.00 0.00 0.00 65 1016.0
20260510095321 40 57 1.0 2.0 0.00 0.00 0.00 64 1016.0
20260510094817 40 57 1.0 2.0 0.00 0.00 0.00 63 1016.0
20260510094330 40 57 1.0 2.0 0.00 0.00 0.00 60 1015.9
20260510093844 40 57 1.0 2.0 0.00 0.00 0.00 60 1015.8
20260510093343 40 57 1.0 2.0 0.00 0.00 0.00 60 1015.8
20260510092851 40 57 1.0 2.0 0.00 0.00 0.00 58 1015.8
20260510092319 40 57 1.0 1.0 0.00 0.00 0.00 59 1015.7
20260510091852 40 57 0.0 2.0 0.00 0.00 0.00 58 1015.6
20260510091324 40 57 1.0 2.0 0.00 0.00 0.00 58 1015.5
20260510090840 40 57 1.0 2.0 0.00 0.00 0.00 58 1015.5
20260510090328 40 57 1.0 2.0 0.00 0.00 0.00 58 1015.5
20260510085824 40 57 1.0 2.0 0.00 0.00 0.00 59 1015.4
20260510085333 40 56 1.0 2.0 0.00 0.00 0.00 58 1015.3
20260510084828 40 56 1.0 2.0 0.00 0.00 0.00 58 1015.3
20260510084326 41 56 1.0 2.0 0.00 0.00 0.00 57 1015.2
20260510083818 41 49 1.0 2.0 0.00 0.00 0.00 57 1015.2
20260510083331 41 48 1.0 2.0 0.00 0.00 0.00 56 1015.1
20260510082826 41 46 1.0 2.0 0.00 0.00 0.00 56 1015.0
20260510082336 42 46 1.0 2.0 0.00 0.00 0.00 56 1014.9
20260510081849 42 47 1.0 2.0 0.00 0.00 0.00 56 1014.9
20260510081335 42 54 1.0 2.0 0.00 0.00 0.00 56 1014.9
20260510080822 42 55 1.0 1.0 0.00 0.00 0.00 56 1014.8
20260510080339 42 54 1.0 1.0 0.00 0.00 0.00 56 1014.7
20260510075832 42 53 0.0 2.0 0.00 0.00 0.00 56 1014.6
20260510075347 42 51 1.0 2.0 0.00 0.00 0.00 56 1014.5
20260510074839 42 49 0.0 2.0 0.00 0.00 0.00 56 1014.4
20260510074325 42 49 1.0 2.0 0.00 0.00 0.00 55 1014.4
20260510073820 42 49 1.0 2.0 0.00 0.00 0.00 55 1014.4
20260510073350 42 49 1.0 2.0 0.00 0.00 0.00 55 1014.3
20260510072823 43 49 1.0 2.0 0.00 0.00 0.00 54 1014.3
20260510072337 43 38 1.0 2.0 0.00 0.00 0.00 54 1014.2
20260510071841 43 35 0.0 1.0 0.00 0.00 0.00 54 1014.2
20260510071338 43 36 0.0 2.0 0.00 0.00 0.00 54 1014.2
20260510070826 43 23 1.0 2.0 0.00 0.00 0.00 54 1014.2
20260510070318 43 19 0.0 1.0 0.00 0.00 0.00 54 1014.1
20260510065852 43 19 0.0 1.0 0.00 0.00 0.00 54 1014.2
20260510065344 43 19 0.0 1.0 0.00 0.00 0.00 53 1014.1
20260510064839 44 38 0.0 1.0 0.00 0.00 0.00 53 1014.1
20260510064328 44 38 0.0 1.0 0.00 0.00 0.00 53 1014.0
20260510063834 44 38 0.0 2.0 0.00 0.00 0.00 52 1014.0
20260510063324 44 38 1.0 2.0 0.00 0.00 0.00 52 1014.0
20260510062820 44 32 1.0 2.0 0.00 0.00 0.00 51 1013.9
20260510062332 45 64 1.0 2.0 0.00 0.00 0.00 51 1013.8
20260510061830 45 64 0.0 2.0 0.00 0.00 0.00 51 1013.8
20260510061323 45 64 1.0 2.0 0.00 0.00 0.00 50 1013.7
20260510060839 45 63 1.0 3.0 0.00 0.00 0.00 50 1013.6
20260510060330 45 69 2.0 3.0 0.00 0.00 0.00 50 1013.5
20260510055826 45 64 1.0 3.0 0.00 0.00 0.00 50 1013.4
20260510055321 45 76 2.0 3.0 0.00 0.00 0.00 50 1013.4
20260510054834 45 69 1.0 3.0 0.00 0.00 0.00 50 1013.5
20260510054333 45 13 1.0 3.0 0.00 0.00 0.00 50 1013.5
20260510053841 45 69 1.0 3.0 0.00 0.00 0.00 51 1013.4
20260510053325 45 78 2.0 3.0 0.00 0.00 0.00 51 1013.4
20260510052817 45 65 1.0 4.0 0.00 0.00 0.00 52 1013.4
20260510052355 46 57 1.0 4.0 0.00 0.00 0.00 51 1013.3
20260510051826 46 63 2.0 3.0 0.00 0.00 0.00 51 1013.3
20260510051320 46 67 2.0 3.0 0.00 0.00 0.00 50 1013.3
20260510050816 47 67 2.0 3.0 0.00 0.00 0.00 50 1013.3
20260510050332 47 70 2.0 3.0 0.00 0.00 0.00 49 1013.3
20260510045840 47 71 2.0 3.0 0.00 0.00 0.00 49 1013.3
20260510045329 47 63 0.0 3.0 0.00 0.00 0.00 49 1013.3
20260510044821 47 71 1.0 3.0 0.00 0.00 0.00 49 1013.1
20260510044318 48 66 1.0 3.0 0.00 0.00 0.00 49 1013.1
20260510043833 48 34 1.0 3.0 0.00 0.00 0.00 49 1013.0
20260510043340 48 54 1.0 3.0 0.00 0.00 0.00 49 1012.9
20260510042850 48 57 0.0 3.0 0.00 0.00 0.00 49 1012.8
20260510042344 48 85 1.0 3.0 0.00 0.00 0.00 49 1012.7
20260510041850 48 59 1.0 3.0 0.00 0.00 0.00 49 1012.6
20260510041324 48 41 1.0 4.0 0.00 0.00 0.00 49 1012.4
20260510040831 48 58 2.0 4.0 0.00 0.00 0.00 49 1012.3
20260510040338 49 345 0.0 3.0 0.00 0.00 0.00 49 1012.1
20260510035859 49 5 1.0 3.0 0.00 0.00 0.00 48 1012.0
20260510035322 49 55 1.0 3.0 0.00 0.00 0.00 48 1011.8
20260510034817 49 19 0.0 2.0 0.00 0.00 0.00 48 1011.7
20260510034334 49 360 1.0 2.0 0.00 0.00 0.00 47 1011.6
20260510033841 49 26 0.0 1.0 0.00 0.00 0.00 48 1011.5
20260510033330 49 347 0.0 2.0 0.00 0.00 0.00 49 1011.3
20260510032816 49 59 0.0 2.0 0.00 0.00 0.00 49 1011.2
20260510032333 49 71 1.0 4.0 0.00 0.00 0.00 49 1011.1
20260510031845 49 55 2.0 4.0 0.00 0.00 0.00 49 1011.0
20260510031351 49 65 1.0 3.0 0.00 0.00 0.00 50 1010.9
20260510030905 49 67 1.0 3.0 0.00 0.00 0.00 51 1010.8
20260510030328 49 80 2.0 3.0 0.00 0.00 0.00 51 1010.8
20260510025858 49 67 1.0 4.0 0.00 0.00 0.00 53 1010.7
20260510025329 49 54 1.0 4.0 0.00 0.00 0.00 53 1010.7
20260510024824 49 39 1.0 2.0 0.00 0.00 0.00 55 1010.6
20260510024341 49 5 1.0 2.0 0.00 0.00 0.00 56 1010.5
20260510023836 49 355 0.0 1.0 0.00 0.00 0.00 58 1010.5
20260510023338 49 355 0.0 1.0 0.00 0.00 0.00 58 1010.4
20260510022822 49 346 0.0 1.0 0.00 0.00 0.00 59 1010.3
20260510022315 49 355 0.0 2.0 0.00 0.00 0.00 60 1010.1
20260510021830 48 355 0.0 2.0 0.00 0.00 0.00 60 1010.1
20260510021327 48 335 0.0 2.0 0.00 0.00 0.00 60 1010.0
20260510020821 48 317 1.0 2.0 0.00 0.00 0.00 61 1009.9
20260510020317 48 307 1.0 2.0 0.00 0.00 0.00 61 1009.8
20260510015833 48 305 0.0 3.0 0.00 0.00 0.00 62 1009.6
20260510015348 49 319 1.0 3.0 0.00 0.00 0.00 62 1009.5
20260510014843 49 300 0.0 2.0 0.00 0.00 0.00 62 1009.4
20260510014331 49 300 0.0 2.0 0.00 0.00 0.00 63 1009.4
20260510013835 49 298 0.0 2.0 0.00 0.00 0.00 62 1009.2
20260510013328 49 297 1.0 2.0 0.00 0.00 0.00 61 1009.0
20260510012821 49 281 1.0 2.0 0.00 0.00 0.00 61 1008.8
20260510012337 49 281 1.0 2.0 0.00 0.00 0.00 62 1008.7
20260510011842 49 281 1.0 2.0 0.00 0.00 0.00 62 1008.5
20260510011318 49 281 1.0 2.0 0.00 0.00 0.00 63 1008.5
20260510010853 49 281 1.0 2.0 0.00 0.00 0.00 63 1008.5
20260510010341 50 279 1.0 2.0 0.00 0.00 0.00 63 1008.3
20260510005835 50 276 1.0 3.0 0.00 0.00 0.00 63 1008.3
20260510005331 50 276 1.0 3.0 0.00 0.00 0.00 62 1008.3
20260510004902 50 273 1.0 4.0 0.00 0.00 0.00 62 1008.3
20260510004328 50 272 1.0 4.0 0.00 0.00 0.00 62 1008.3
20260510003843 51 273 2.0 4.0 0.00 0.00 0.00 62 1008.3
20260510003331 52 266 2.0 4.0 0.00 0.00 0.00 61 1008.2
20260510002846 52 273 2.0 3.0 0.00 0.00 0.00 61 1008.1
20260510002318 53 261 2.0 3.0 0.00 0.00 0.00 61 1008.0
20260510001835 53 259 2.0 3.0 0.00 0.00 0.00 61 1007.9
20260510001329 54 263 2.0 2.0 0.00 0.00 0.00 60 1007.9
20260510000826 54 275 1.0 2.0 0.00 0.00 0.00 59 1007.9
20260510000320 55 262 2.0 3.0 0.00 0.00 0.00 58 1007.7
20260509235816 55 279 2.0 3.0 0.00 0.00 0.00 58 1007.6
20260509235350 55 273 2.0 3.0 0.00 0.00 0.00 58 1007.4
20260509234843 56 288 2.0 3.0 0.00 0.00 0.00 58 1007.4
20260509234328 56 306 2.0 4.0 0.00 0.00 0.00 58 1007.4
20260509233905 56 309 2.0 4.0 0.00 0.00 0.00 57 1007.3
20260509233328 56 294 2.0 4.0 0.00 0.00 0.00 58 1007.2
20260509232822 56 276 2.0 4.0 0.00 0.00 0.00 57 1007.1
20260509232338 56 291 2.0 4.0 0.00 0.00 0.00 57 1007.1
20260509231823 56 298 2.0 4.0 0.00 0.00 0.00 57 1007.0
20260509231339 56 274 2.0 3.0 0.00 0.00 0.00 57 1006.9
20260509230824 57 256 2.0 4.0 0.00 0.00 0.00 56 1006.9
20260509230320 58 257 2.0 4.0 0.00 0.00 0.00 54 1006.8
20260509225829 58 285 2.0 4.0 0.00 0.00 0.00 54 1006.8
20260509225324 58 259 2.0 4.0 0.00 0.00 0.00 54 1006.6
20260509224820 59 272 1.0 3.0 0.00 0.00 0.00 53 1006.6
20260509224317 59 264 2.0 3.0 0.00 0.00 0.00 52 1006.5
20260509223833 59 260 1.0 3.0 0.00 0.00 0.00 52 1006.5
20260509223328 59 288 2.0 4.0 0.00 0.00 0.00 52 1006.4
20260509222817 59 286 2.0 4.0 0.00 0.00 0.00 53 1006.4
20260509222334 59 250 2.0 4.0 0.00 0.00 0.00 51 1006.3
20260509221828 59 258 1.0 4.0 0.00 0.00 0.00 51 1006.2
20260509221317 60 229 2.0 4.0 0.00 0.00 0.00 50 1006.2
20260509220830 60 267 2.0 4.0 0.00 0.00 0.00 50 1006.1
20260509220317 60 271 2.0 4.0 0.00 0.00 0.00 51 1006.0
20260509215831 59 290 2.0 4.0 0.00 0.00 0.00 51 1006.0
20260509215323 59 246 2.0 4.0 0.00 0.00 0.00 50 1005.9
20260509214836 59 265 2.0 4.0 0.00 0.00 0.00 48 1005.9
20260509214331 60 269 1.0 3.0 0.00 0.00 0.00 49 1005.8
20260509213825 59 300 2.0 5.0 0.00 0.00 0.00 51 1005.8
20260509213358 59 265 2.0 5.0 0.00 0.00 0.00 52 1005.9
20260509212821 58 275 3.0 5.0 0.00 0.00 0.00 55 1005.9
20260509212331 57 295 3.0 5.0 0.00 0.00 0.00 56 1005.9
20260509211825 57 302 3.0 6.0 0.00 0.00 0.00 56 1005.9
20260509211351 56 317 3.0 6.0 0.00 0.00 0.00 56 1005.9
20260509210841 56 278 3.0 5.0 0.00 0.00 0.00 57 1005.9
20260509210314 56 275 2.0 4.0 0.00 0.00 0.00 57 1005.8
20260509205830 55 281 3.0 4.0 0.00 0.00 0.00 57 1005.7
20260509205326 55 269 3.0 4.0 0.00 0.00 0.00 56 1005.4
20260509204857 54 240 3.0 4.0 0.00 0.00 0.00 58 1005.3
20260509204331 54 280 2.0 4.0 0.00 0.00 0.00 57 1005.2
20260509203826 54 260 2.0 4.0 0.00 0.00 0.00 57 1005.0
20260509203321 55 248 2.0 4.0 0.00 0.00 0.00 58 1005.0
20260509202854 55 252 2.0 4.0 0.00 0.00 0.00 58 1005.0
20260509202324 56 259 3.0 4.0 0.00 0.00 0.00 56 1004.9
20260509201818 55 234 2.0 4.0 0.00 0.00 0.00 58 1005.0
20260509201336 55 235 3.0 5.0 0.00 0.00 0.00 58 1005.0
20260509200823 55 235 3.0 5.0 0.00 0.00 0.00 56 1005.0
20260509200340 55 209 3.0 5.0 0.00 0.00 0.00 55 1004.9
20260509195835 54 216 4.0 5.0 0.00 0.00 0.00 58 1004.9
20260509195328 54 219 3.0 7.0 0.00 0.00 0.00 61 1004.8
20260509194819 54 211 3.0 7.0 0.00 0.00 0.00 60 1004.8
20260509194333 54 200 3.0 7.0 0.00 0.00 0.00 60 1004.7
20260509193825 54 215 3.0 7.0 0.00 0.00 0.00 59 1004.7
20260509193329 54 225 3.0 7.0 0.00 0.00 0.00 60 1004.7
20260509192826 54 209 4.0 7.0 0.00 0.00 0.00 59 1004.7
20260509192321 54 213 4.0 5.0 0.00 0.00 0.00 59 1004.6
20260509191818 54 236 3.0 5.0 0.00 0.00 0.00 59 1004.6
20260509191335 54 234 2.0 4.0 0.00 0.00 0.00 59 1004.5
20260509190829 53 208 2.0 4.0 0.00 0.00 0.00 61 1004.5
20260509190334 53 211 3.0 5.0 0.00 0.00 0.00 58 1004.5
20260509185838 53 217 2.0 5.0 0.00 0.00 0.00 62 1004.5
20260509185324 53 222 3.0 6.0 0.00 0.00 0.00 60 1004.5
20260509184841 53 209 4.0 6.0 0.00 0.00 0.00 60 1004.5
20260509184337 53 229 3.0 5.0 0.00 0.00 0.00 60 1004.5
20260509183821 53 211 4.0 5.0 0.00 0.00 0.00 58 1004.5
20260509183317 53 234 2.0 7.0 0.00 0.00 0.00 60 1004.4
20260509182833 52 230 3.0 7.0 0.00 0.00 0.00 62 1004.4
20260509182321 52 205 4.0 7.0 0.00 0.00 0.00 61 1004.4
20260509181902 52 223 4.0 7.0 0.00 0.00 0.00 60 1004.4
20260509181330 52 228 4.0 7.0 0.00 0.00 0.00 60 1004.4
20260509180843 52 201 3.0 6.0 0.00 0.00 0.00 62 1004.3
20260509180315 52 207 4.0 7.0 0.00 0.00 0.00 62 1004.4
20260509175851 52 204 3.0 7.0 0.00 0.00 0.00 62 1004.3
20260509175326 52 212 4.0 7.0 0.00 0.00 0.00 60 1004.4
20260509174817 52 255 4.0 7.0 0.00 0.00 0.00 60 1004.3
20260509174333 53 221 4.0 7.0 0.00 0.00 0.00 58 1004.2
20260509173817 53 238 2.0 3.0 0.00 0.00 0.00 57 1004.1
20260509173336 52 254 2.0 3.0 0.00 0.00 0.00 58 1004.2
20260509172829 51 211 1.0 5.0 0.00 0.00 0.00 59 1004.2
20260509172324 51 220 2.0 5.0 0.00 0.00 0.00 59 1004.3
20260509171839 51 200 2.0 4.0 0.00 0.00 0.00 61 1004.3
20260509171329 50 252 2.0 5.0 0.00 0.00 0.00 61 1004.3
20260509170825 50 258 2.0 5.0 0.00 0.00 0.00 63 1004.4
20260509170333 49 273 2.0 7.0 0.00 0.00 0.00 62 1004.4
20260509165822 49 236 2.0 7.0 0.00 0.00 0.00 62 1004.4
20260509165317 49 219 2.0 8.0 0.00 0.00 0.00 62 1004.3
20260509164827 50 271 4.0 9.0 0.00 0.00 0.00 62 1004.3
20260509164334 50 205 4.0 11.0 0.00 0.00 0.00 61 1004.1
20260509163822 51 226 7.0 11.0 0.00 0.00 0.00 61 1003.8
20260509163332 53 229 5.0 9.0 0.00 0.00 0.00 59 1003.9
20260509162827 55 220 6.0 9.0 0.00 0.00 0.00 54 1003.7
20260509162324 56 67 0.0 2.0 0.00 0.00 0.00 49 1003.5
20260509161836 55 67 0.0 2.0 0.00 0.00 0.00 52 1003.3
20260509161327 55 60 1.0 2.0 0.00 0.00 0.00 55 1003.2
20260509160820 54 10 1.0 2.0 0.00 0.00 0.00 57 1003.1
20260509160317 53 308 0.0 3.0 0.00 0.00 0.00 60 1003.1
20260509155830 51 86 1.0 5.0 0.00 0.00 0.00 58 1003.0
20260509155325 51 75 1.0 5.0 0.00 0.00 0.00 58 1003.2
20260509154900 51 47 2.0 6.0 0.00 0.00 0.00 59 1003.1
20260509154328 50 85 1.0 10.0 0.00 0.00 0.00 58 1003.2
20260509153837 49 72 4.0 10.0 0.00 0.00 0.00 59 1003.1
20260509153324 49 51 2.0 6.0 0.00 0.00 0.00 61 1003.9
20260509152839 49 119 2.0 9.0 0.00 0.00 0.00 62 1004.0
20260509152331 49 287 5.0 9.0 0.00 0.00 0.00 63 1004.4
20260509151827 48 302 1.0 6.0 0.00 0.00 0.00 64 1003.8
20260509151322 47 321 2.0 7.0 0.00 0.00 0.00 66 1003.7
20260509150818 47 263 2.0 7.0 0.00 0.00 0.00 70 1003.8
20260509150332 47 257 4.0 7.0 0.00 0.00 0.00 71 1003.8
20260509145840 47 259 2.0 5.0 0.00 0.00 0.00 71 1003.7
20260509145334 48 211 3.0 4.0 0.00 0.00 0.00 71 1003.5
20260509144908 48 215 2.0 4.0 0.00 0.00 0.00 71 1003.4
20260509144342 48 204 2.0 9.0 0.00 0.00 0.00 71 1003.3
20260509143831 48 198 3.0 9.0 0.00 0.00 0.00 71 1003.1
20260509143327 48 190 4.0 9.0 0.00 0.00 0.00 72 1003.1
20260509142820 49 219 4.0 12.0 0.00 0.00 0.00 73 1002.8
20260509142317 48 268 5.0 12.0 0.00 0.00 0.00 74 1002.8
20260509141814 48 224 7.0 11.0 0.00 0.00 0.00 74 1002.6
20260509141332 48 229 5.0 11.0 0.00 0.00 0.00 74 1002.5
20260509140822 48 207 7.0 11.0 0.00 0.00 0.00 74 1002.5
20260509140339 48 196 5.0 10.0 0.00 0.00 0.00 74 1002.3
20260509135829 48 202 7.0 11.0 0.00 0.00 0.00 73 1002.3
20260509135325 48 227 7.0 11.0 0.00 0.00 0.00 73 1002.4
20260509134832 48 257 7.0 14.0 0.00 0.00 0.00 73 1002.3
20260509134318 48 253 6.0 14.0 0.00 0.00 0.00 73 1002.1
20260509133833 48 243 8.0 16.0 0.00 0.00 0.00 74 1002.0
20260509133347 48 238 8.0 17.0 0.00 0.00 0.00 74 1002.0
20260509132851 48 242 8.0 19.0 0.00 0.00 0.00 74 1001.9
20260509132325 48 156 8.0 19.0 0.00 0.00 0.00 74 1001.8
20260509131815 48 236 9.0 17.0 0.00 0.00 0.00 74 1001.9
20260509131354 48 219 8.0 13.0 0.00 0.00 0.00 74 1001.8
20260509130827 48 279 6.0 19.0 0.00 0.00 0.00 73 1001.8